"Pseudo-MPEC" for TMG0088

Created 2023 Nov 26 7:22:11 UT using Find_Orb

Click here for an explanation of pseudo-MPECs

 
 Astrometry: 
     TMG0088* C2023 11 20#0oihKgUH/@'#G-2xUZMci@DYK-aAstrometry\teFi.5;uD=^dD381
     TMG0088  C2023 11 20afQMd`-ZgJI.n]3DIPcpsqredacted;_4F)Q*nOE4ZrRt2b*[py]381
     TMG0088  C2023 11 20U=-_WXxGxyx)G(N[b!3][Eye[oS,Mp92QJkOf8'fj03L9Iin\O(%381
     TMG0088  C2023 11 20:=NYJZ,uNsLxdUeV\+GrM:A.$B]`GQWu0'/q]jN\.)!f,gXk'a5X381
     TMG0088  C2023 11 20)rr*IclickOY40i_gL);.7y/U?os,N?3(`dNhere2nw;(eKqJ8CS381
     TMG0088  C2023 11 20.,D-;yforeM29FyuL!5jOG9bAlg8pexplanationZ5$hAHO7UV)A381

Station data:
(381) Tokyo-Kiso  (N35.797227 E137.625420)  Japan.  Observer J. Beniyama.
   1.05-m f/3.1 Schmidt + CCD.

Orbital elements:  TMG0088
   Perigee 2023 Nov 20.65615 +/- 0.00216 TT = 15:44:51 (JD 2460269.15615)
Epoch 2023 Nov 21.0 TT = JDT 2460269.5                           AutoNEOCP
q215371.955 +/- 3560                (J2000 equator)
H   30.61 G 0.15                    Peri.  181.77578 +/- 0.22
                                    Node   206.44066 +/- 0.022
e  10.1102091 +/- 0.548             Incl.   67.64995 +/- 0.07
From 6 observations 2023 Nov. 20 (2.2 hr); mean residual 1".22
Residuals in arcseconds: 
231120 381  .58-  1.4+    231120 381  .18+  1.7+    231120 381  .42-  1.9+    
231120 381  .58+  1.4-    231120 381  .18-  1.7-    231120 381  .42+  1.9-    

Ephemerides (geocentric):
Date (UTC) HH   RA             Dec           delta  r     elong  mag " sig PA
---- --------  ------------   ------------  ------ ------ -----  --- --------
2023 11 26 07  07 55 41.981   -67 36 48.12  .01372 .98520  82.1 24.8 1041  73
2023 11 26 08  07 56 12.537   -67 36 41.84  .01382 .98517  82.0 24.8 1043  73
2023 11 26 09  07 56 42.668   -67 36 35.35  .01392 .98514  82.0 24.8 1044  73
2023 11 26 10  07 57 12.383   -67 36 28.65  .01402 .98512  82.0 24.8 1046  73
2023 11 26 11  07 57 41.690   -67 36 21.75  .01412 .98509  82.0 24.8 1047  73
2023 11 26 12  07 58 10.597   -67 36 14.67  .01422 .98506  81.9 24.8 1048  73
2023 11 26 13  07 58 39.114   -67 36 07.42  .01432 .98503  81.9 24.9 1050  73
2023 11 26 14  07 59 07.248   -67 36 00.00  .01442 .98501  81.9 24.9 1051  73
2023 11 26 15  07 59 35.006   -67 35 52.44  .01451 .98498  81.8 24.9 1053  73
2023 11 26 16  08 00 02.397   -67 35 44.73  .01461 .98495  81.8 24.9 1054  72
2023 11 26 17  08 00 29.428   -67 35 36.88  .01471 .98492  81.8 24.9 1055  72
2023 11 26 18  08 00 56.106   -67 35 28.91  .01481 .98490  81.8 24.9 1056  72
2023 11 26 19  08 01 22.438   -67 35 20.83  .01491 .98487  81.7 25.0 1058  72
2023 11 26 20  08 01 48.431   -67 35 12.63  .01501 .98484  81.7 25.0 1059  72
2023 11 26 21  08 02 14.091   -67 35 04.34  .01511 .98482  81.7 25.0 1060  72
2023 11 26 22  08 02 39.425   -67 34 55.94  .01521 .98479  81.7 25.0 1061  72
2023 11 26 23  08 03 04.440   -67 34 47.47  .01530 .98476  81.6 25.0 1063  72
2023 11 27 00  08 03 29.141   -67 34 38.91  .01540 .98474  81.6 25.0 1064  72
2023 11 27 01  08 03 53.535   -67 34 30.27  .01550 .98471  81.6 25.0 1065  72
2023 11 27 02  08 04 17.628   -67 34 21.57  .01560 .98468  81.6 25.1 1066  72
2023 11 27 03  08 04 41.424   -67 34 12.80  .01570 .98466  81.5 25.1 1067  72
2023 11 27 04  08 05 04.930   -67 34 03.98  .01580 .98463  81.5 25.1 1068  72
2023 11 27 05  08 05 28.152   -67 33 55.11  .01590 .98460  81.5 25.1 1070  72
2023 11 27 06  08 05 51.094   -67 33 46.19  .01600 .98458  81.5 25.1 1071  71
2023 11 27 07  08 06 13.762   -67 33 37.22  .01609 .98455  81.5 25.1 1072  71
2023 11 27 08  08 06 36.160   -67 33 28.22  .01619 .98452  81.4 25.1 1073  71
2023 11 27 09  08 06 58.294   -67 33 19.19  .01629 .98450  81.4 25.2 1074  71
2023 11 27 10  08 07 20.169   -67 33 10.13  .01639 .98447  81.4 25.2 1075  71
2023 11 27 11  08 07 41.789   -67 33 01.04  .01649 .98444  81.4 25.2 1076  71
2023 11 27 12  08 08 03.159   -67 32 51.94  .01659 .98442  81.4 25.2 1077  71
2023 11 27 13  08 08 24.283   -67 32 42.82  .01669 .98439  81.3 25.2 1078  71
2023 11 27 14  08 08 45.166   -67 32 33.68  .01678 .98437  81.3 25.2 1079  71
2023 11 27 15  08 09 05.812   -67 32 24.54  .01688 .98434  81.3 25.2 1080  71
2023 11 27 16  08 09 26.225   -67 32 15.39  .01698 .98431  81.3 25.2 1081  71
2023 11 27 17  08 09 46.409   -67 32 06.23  .01708 .98429  81.3 25.3 1082  71
2023 11 27 18  08 10 06.369   -67 31 57.08  .01718 .98426  81.2 25.3 1083  71
2023 11 27 19  08 10 26.108   -67 31 47.93  .01728 .98424  81.2 25.3 1084  71
2023 11 27 20  08 10 45.630   -67 31 38.78  .01738 .98421  81.2 25.3 1085  71
2023 11 27 21  08 11 04.938   -67 31 29.64  .01747 .98418  81.2 25.3 1086  71
2023 11 27 22  08 11 24.037   -67 31 20.52  .01757 .98416  81.2 25.3 1087  70
2023 11 27 23  08 11 42.930   -67 31 11.40  .01767 .98413  81.2 25.3 1088  70
2023 11 28 00  08 12 01.620   -67 31 02.31  .01777 .98411  81.1 25.3 1089  70
2023 11 28 01  08 12 20.112   -67 30 53.23  .01787 .98408  81.1 25.4 1090  70
2023 11 28 02  08 12 38.407   -67 30 44.17  .01797 .98406  81.1 25.4 1091  70
2023 11 28 03  08 12 56.510   -67 30 35.13  .01807 .98403  81.1 25.4 1092  70
2023 11 28 04  08 13 14.423   -67 30 26.11  .01816 .98400  81.1 25.4 1093  70
2023 11 28 05  08 13 32.150   -67 30 17.12  .01826 .98398  81.1 25.4 1094  70
2023 11 28 06  08 13 49.694   -67 30 08.16  .01836 .98395  81.0 25.4 1095  70